ENBN Weather Reports


Display with metric or nautical units.
time (UTC)temp
F
wind
direction
speed
MPH
gust
MPH
rain 1hr
in
rain 24hr
in
rain mn
in
humidity
%
barometer
mb
20260507120307 41 200 13.0 0.0 0.00 0.00 0.00 86 1017.0
20260507113308 39 210 16.0 0.0 0.00 0.00 0.00 86 1017.0
20260507110307 41 210 16.0 0.0 0.00 0.00 0.00 80 1016.0
20260507103307 42 220 16.0 0.0 0.00 0.00 0.00 75 1016.0
20260507100308 41 210 14.0 0.0 0.00 0.00 0.00 80 1016.0
20260507093307 42 200 9.0 0.0 0.00 0.00 0.00 70 1016.0
20260507090308 42 200 10.0 0.0 0.00 0.00 0.00 70 1015.0
20260507083307 44 190 9.0 0.0 0.00 0.00 0.00 70 1015.0
20260507080308 44 190 10.0 0.0 0.00 0.00 0.00 70 1015.0
20260507073307 42 210 13.0 0.0 0.00 0.00 0.00 75 1015.0
20260507070307 41 200 13.0 0.0 0.00 0.00 0.00 80 1014.0
20260507063307 39 190 12.0 0.0 0.00 0.00 0.00 80 1014.0
20260507053307 37 190 10.0 0.0 0.00 0.00 0.00 86 1014.0
20260507050307 37 200 7.0 0.0 0.00 0.00 0.00 86 1014.0
20260507043308 35 180 8.0 0.0 0.00 0.00 0.00 93 1014.0
20260507040308 35 200 14.0 0.0 0.00 0.00 0.00 93 1014.0
20260507033307 37 190 12.0 0.0 0.00 0.00 0.00 86 1013.0
20260507030306 37 200 8.0 0.0 0.00 0.00 0.00 86 1013.0
20260507023307 37 200 8.0 0.0 0.00 0.00 0.00 86 1013.0
20260507020307 35 220 12.0 0.0 0.00 0.00 0.00 93 1013.0
20260507013307 37 190 10.0 0.0 0.00 0.00 0.00 80 1013.0
20260507010306 37 190 8.0 0.0 0.00 0.00 0.00 80 1013.0
20260507003307 37 200 10.0 0.0 0.00 0.00 0.00 86 1013.0
20260507000307 37 190 10.0 0.0 0.00 0.00 0.00 86 1013.0
20260506233307 37 180 9.0 0.0 0.00 0.00 0.00 86 1012.0
20260506230307 37 180 6.0 0.0 0.00 0.00 0.00 86 1012.0
20260506223307 37 0 2.0 0.0 0.00 0.00 0.00 86 1012.0
20260506220307 35 100 8.0 0.0 0.00 0.00 0.00 93 1012.0
20260506213307 35 90 7.0 0.0 0.00 0.00 0.00 93 1012.0
20260506210307 37 260 5.0 0.0 0.00 0.00 0.00 86 1012.0
20260506203306 37 210 6.0 0.0 0.00 0.00 0.00 86 1012.0
20260506200306 37 140 6.0 0.0 0.00 0.00 0.00 93 1012.0
20260506193307 39 150 9.0 0.0 0.00 0.00 0.00 86 1012.0
20260506190306 37 100 7.0 0.0 0.00 0.00 0.00 93 1011.0
20260506183307 35 110 7.0 0.0 0.00 0.00 0.00 93 1012.0
20260506180307 35 230 7.0 0.0 0.00 0.00 0.00 93 1012.0
20260506173308 37 290 5.0 0.0 0.00 0.00 0.00 93 1012.0
20260506170307 37 300 10.0 0.0 0.00 0.00 0.00 86 1011.0
20260506163307 41 200 9.0 0.0 0.00 0.00 0.00 80 1011.0
20260506160307 41 200 9.0 0.0 0.00 0.00 0.00 80 1011.0
20260506153307 39 190 10.0 0.0 0.00 0.00 0.00 86 1011.0
20260506150307 39 200 10.0 0.0 0.00 0.00 0.00 86 1011.0
20260506143307 39 280 12.0 0.0 0.00 0.00 0.00 86 1011.0
20260506140307 41 280 6.0 0.0 0.00 0.00 0.00 80 1011.0
20260506133307 41 290 9.0 0.0 0.00 0.00 0.00 80 1010.0
20260506130308 39 200 8.0 0.0 0.00 0.00 0.00 86 1010.0
20260506123307 42 220 16.0 0.0 0.00 0.00 0.00 75 1010.0